星链-30501 (STARLINK-30501 )

导读 | 星芒AI

STARLINK-30501 是 SpaceX Starlink 卫星互联网项目中的一颗低轨卫星,属于第三代星链卫星(v1.5 或 v2 版本)。该卫星由 SpaceX 设计并发射,旨在为全球用户提供高速、低延迟的宽带互联网服务。它运行在约 550 公里的轨道高度,配备先进通信设备和激光链路,以提升网络性能和卫星间通信能力。STARLINK-30501 的部署有助于扩大 Starlink 在全球范围的覆盖,特别是在偏远和网络基础设施薄弱的地区。

基本信息
目录编号:
57917
目录名称:
STARLINK-30501
国际标识:
2023-147E
轨道中心:
EARTH
卫星名称:
星链-30501
卫星全名:
星链-30501 (STARLINK-30501 )
卫星状态:
在轨 (已飞行817 天)
发射日期:
2023-09-24 UTC
国别 :
美国 (US)
星等 :
--
轨道信息
数据来源 国际轨道数据 AOE轨道数据
星历时间 2025-12-19T12:15:34+0800
12小时前
查看轨道信息
2025-12-17T09:00:00+0800
2天前
查看轨道信息
半长轴 6937.22km 6937.206km
偏心率 0.000091 0.000001
轨道倾角 43.003° 43.004°
近地点辐角 279.265° 2.119°
升交点赤经 43.811° 55.417°
平近点角 80.809° 311.827°
近地点 558.451km 559.064km
远地点 559.715km 559.078km
周期 95.838分钟 95.838分钟
每日圈数 15.02535 15.025397
详细信息
固有亮度:
5
最大亮度:
0.3
卫星平台:
Starlink v2.0 mini
覆盖范围:
全球
运营商:
太空探索技术公司
运营商所在国:
美国
制造商(研发单位):
太空探索技术公司
制造商所在国:
美国
使用方式:
暂无
卫星简介
星链(Starlink)计划是由太空探索技术公司(SpaceX)提出的一个巨型低轨卫星互联网星座项目,计划在2019年至2024年间在太空搭建由约1.2万颗卫星组成的“星链”网络,其中1584颗将部署在地球上空550千米处的近地轨道,并从2020年开始工作。该卫星仍在工作。
2D轨道图
3D轨道图
轨道高度分析图
轨道倾角分析图
轨道综合分析图
查看轨道综合分析图